Weather History for Columbus, GA

Change the Weather History Date:

Sunday, August 4, 2013

  Actual Average Record
Temperature  
Mean Temperature 86 °F 82 °F  
Max Temperature 93 °F 92 °F 99 °F (1954)
Min Temperature 78 °F 73 °F 62 °F (1950)
Degree Days  
Heating Degree Days 0 0  
Month to date heating degree days 0 0  
Since 1 June heating degree days 0 0  
Since 1 July heating degree days 0 0  
Cooling Degree Days 21 18  
Month to date cooling degree days 75 72  
Year to date cooling degree days 1374 1420  
Since 1 June cooling degree days 1011 1062  
Growing Degree Days 34 (Base 50)    
Moisture  
Dew Point 72 °F    
Average Humidity 63    
Maximum Humidity 79    
Minimum Humidity 47    
Precipitation  
Precipitation 0.00 in 0.13 in 1.33 in (1948)
Month to date precipitation 0.22 0.53  
Year to date precipitation 41.96 29.50  
Sea Level Pressure  
Sea Level Pressure 30.01 in    
Wind  
Wind Speed 6 mph (NW)    
Max Wind Speed 15 mph    
Max Gust Speed 22 mph    
Visibility 9 miles    
Events Thunderstorm    
T = Trace of Precipitation, MM = Missing Value Source: NWS Daily Summary

Daily Weather History Graph

Daily Weather History Graph

Search for Another Location

Airport:

Trip Planner

Search our weather history database for the weather conditions in past years. The results will help you decide how hot, cold, wet, or windy it might be!

Date:

Astronomy

Aug. 04, 2013 Rise Set
Actual Time 6:56 AM EDT 8:34 PM EDT
Civil Twilight 6:29 AM EDT 9:01 PM EDT
Nautical Twilight 5:57 AM EDT 9:33 PM EDT
Astronomical Twilight 5:24 AM EDT 10:06 PM EDT
Moon 4:57 AM EDT (8/4) 6:57 PM EDT (8/4)
Length of Visible Light 14h 31m
Length of Day
13h 38m
Waning Crescent, 5% of the Moon is Illuminated
Aug 4
Waning Crescent
Aug 6
New
Aug 14
First Quarter
Aug 20
Full
Aug 28
Last Quarter

Hourly Weather History & Observations

Time (EDT) Temp. Heat Index Dew Point Humidity Pressure Visibility Wind Dir Wind Speed Gust Speed Precip Events Conditions
12:51 AM 81.0 °F 86.2 °F 73.9 °F 79% 30.02 in 8.0 mi Calm Calm - N/A   Clear
1:51 AM 80.1 °F 84.5 °F 73.9 °F 81% 30.02 in 7.0 mi Calm Calm - N/A   Clear
2:51 AM 80.1 °F 84.5 °F 73.9 °F 81% 30.01 in 7.0 mi WNW 3.5 mph - N/A   Clear
3:51 AM 80.1 °F 84.2 °F 73.0 °F 79% 30.01 in 8.0 mi WNW 3.5 mph - N/A   Clear
4:51 AM 79.0 °F - 72.0 °F 79% 30.01 in 7.0 mi Calm Calm - N/A   Clear
5:51 AM 78.1 °F - 72.0 °F 81% 30.01 in 7.0 mi West 3.5 mph - N/A   Clear
6:51 AM 78.1 °F - 72.0 °F 81% 30.01 in 7.0 mi WNW 3.5 mph - N/A   Clear
7:51 AM 78.1 °F - 72.0 °F 81% 30.02 in 5.0 mi WNW 3.5 mph - N/A   Haze
8:51 AM 79.0 °F - 72.0 °F 79% 30.04 in 5.0 mi NNW 6.9 mph - N/A   Haze
9:51 AM 81.0 °F 85.2 °F 72.0 °F 74% 30.03 in 7.0 mi NNW 5.8 mph - N/A   Partly Cloudy
10:51 AM 82.9 °F 88.8 °F 73.0 °F 72% 30.03 in 8.0 mi West 5.8 mph - N/A   Clear
11:44 AM 86.0 °F 93.4 °F 73.4 °F 66% 30.04 in 10.0 mi WNW 3.5 mph - N/A   Mostly Cloudy
11:51 AM 86.0 °F 93.0 °F 73.0 °F 65% 30.03 in 10.0 mi WNW 5.8 mph - N/A   Mostly Cloudy
11:58 AM 87.8 °F 95.6 °F 73.4 °F 62% 30.04 in 8.0 mi Variable 6.9 mph - N/A   Scattered Clouds
12:51 PM 89.1 °F 97.0 °F 73.0 °F 59% 30.02 in 9.0 mi WNW 11.5 mph 20.7 mph N/A   Mostly Cloudy
1:42 PM 89.6 °F 96.2 °F 71.6 °F 55% 30.01 in 10.0 mi NNW 12.7 mph - N/A   Mostly Cloudy
1:51 PM 90.0 °F 96.4 °F 71.1 °F 54% 29.99 in 10.0 mi North 10.4 mph - N/A   Mostly Cloudy
2:01 PM 89.6 °F 96.2 °F 71.6 °F 55% 30.01 in 10.0 mi North 12.7 mph - N/A   Scattered Clouds
2:03 PM 91.4 °F 98.4 °F 71.6 °F 52% 30.01 in 10.0 mi North 11.5 mph - N/A Thunderstorm Scattered Clouds
2:51 PM 88.0 °F 93.8 °F 71.1 °F 57% 29.99 in 10.0 mi NW 11.5 mph - N/A Thunderstorm Scattered Clouds
3:05 PM 87.8 °F 93.8 °F 71.6 °F 58% 30.01 in 10.0 mi NNW 11.5 mph - N/A   Scattered Clouds
3:51 PM 89.1 °F 95.0 °F 71.1 °F 55% 29.97 in 10.0 mi NNW 9.2 mph 16.1 mph N/A   Scattered Clouds
4:51 PM 91.9 °F 95.9 °F 68.0 °F 45% 29.95 in 10.0 mi NNW 13.8 mph 19.6 mph N/A   Scattered Clouds
5:51 PM 91.0 °F 95.2 °F 68.0 °F 47% 29.96 in 10.0 mi NNE 10.4 mph - N/A   Partly Cloudy
6:51 PM 91.0 °F 95.6 °F 69.1 °F 48% 29.96 in 10.0 mi North 11.5 mph - N/A   Partly Cloudy
7:51 PM 89.1 °F 93.7 °F 69.1 °F 52% 29.97 in 10.0 mi North 4.6 mph - N/A   Clear
8:51 PM 86.0 °F 91.5 °F 71.1 °F 61% 29.97 in 10.0 mi North 3.5 mph - N/A   Clear
9:51 PM 84.0 °F 89.0 °F 71.1 °F 65% 29.99 in 10.0 mi NW 4.6 mph - N/A   Clear
10:51 PM 82.9 °F 88.0 °F 72.0 °F 69% 30.01 in 10.0 mi NW 3.5 mph - N/A   Clear
11:51 PM 82.0 °F 86.7 °F 72.0 °F 71% 30.01 in 10.0 mi North 4.6 mph - N/A   Partly Cloudy